Regional Weather Roundup
Issued by NWS

Home | Current Version | Previous Version | Text Only | Print | Product List | Glossary Off
Versions: 1 2 3 4 5 6 7 8 9 10 11 12 13 14 15 16 17 18 19 20 21 22 23 24 25 26 27 28 29 30 31 32 33 34 35 36 37 38 39 40 41 42 43 44 45 46 47 48 49 50

921
ASUS44 KLIX 181105
RWRLA
LOUISIANA WEATHER ROUNDUP
NATIONAL WEATHER SERVICE NEW ORLEANS LA
500 AM CST THU DEC 18 2014

NOTE: "FAIR" INDICATES FEW OR NO CLOUDS BELOW 12,000 FEET WITH NO
      SIGNIFICANT WEATHER AND/OR OBSTRUCTIONS TO VISIBILITY.
      SKY/WX - SKY CONDITION AND SIGNIFICANT WEATHER.
      TMP - AIR TEMPERATURE.    DP   - DEWPOINT TEMPERATURE.
      RH  - RELATIVE HUMIDITY.  PRES - PRESSURE.
      HX  - HEAT INDEX.         WCI  - WIND CHILL INDEX.

*  THESE STATIONS ARE NOT NWS OR FAA STATIONS AND ARE NOT UNDER
   NWS QUALITY CONTROL.

LAZ040-048-061>063-065-066-069-181200-
SOUTHEAST LOUISIANA

CITY           SKY/WX    TMP DP  RH WIND       PRES   REMARKS
N.O. AUDUBON     N/A     54  47  78 MISG        N/A
N.O. INTL ARPT MOCLDY    52  46  80 E5        30.16F
N.O. LAKEFRONT PTCLDY    56  49  77 E8        30.17F
N.O. DOWNTOWN* FAIR      54  45  71 NE5       30.16F
SLIDELL        PTCLDY    42  40  92 CALM      30.17S
BATON ROUGE    MOCLDY    47  43  86 NE3       30.15F
BOOTHVILLE     MOCLDY    56  51  84 NE6       30.16S
BELLE CHASSE   PTCLDY    46  44  93 CALM      30.16S
BOGALUSA*        N/A     44  40  88 CALM      30.18F
GALLIANO*      MOSUNNY   54  51  89 MISG      30.16S
NEW ROADS*     FAIR      48  43  82 E6        30.13F
GONZALES*      NOT AVBL
HAMMOND*       NOT AVBL
HOUMA*         PTCLDY    47  46  93 CALM      30.15S FOG
PORT FOURCHON* SUNNY     59  54  82 NE6       30.17S

$$

LAZ041-044-053-054-181200-
SOUTHWEST LOUISIANA

CITY           SKY/WX    TMP DP  RH WIND       PRES   REMARKS
LAKE CHARLES   CLOUDY    53  49  86 E8        30.08F
LAFAYETTE      MOCLDY    51  43  74 CALM      30.12F
PATTERSON      MOCLDY    52  46  82 E6        30.14F
SALT POINT       N/A     55  47  74 E3        30.11F
NEW IBERIA     PTCLDY    50  44  80 E5        30.12F
CHENAULT AIRPK NOT AVBL

$$

LAZ027-028-181200-
CENTRAL LOUISIANA

CITY           SKY/WX    TMP DP  RH WIND       PRES   REMARKS
FORT POLK      NOT AVBL
ALEXANDRIA INT CLOUDY    51  43  74 E5        30.12F
ALEXANDRIA     CLOUDY    51  43  74 E6        30.14R

$$

LAZ001-002-181200-
NORTHWEST LOUISIANA

CITY           SKY/WX    TMP DP  RH WIND       PRES   REMARKS
SHREVEPORT     CLOUDY    45  43  93 NE7       30.15S
BARKSDALE AFB  NOT AVBL
DTN SHREVEPORT CLOUDY    44  41  89 N7        30.16S

$$

LAZ014-016-181200-
NORTHEAST LOUISIANA

CITY           SKY/WX    TMP DP  RH WIND       PRES   REMARKS
MONROE         CLOUDY    45  40  82 E8        30.16F
TALLULAH       CLOUDY    46  40  79 E7        30.19S

$$




USA.gov is the U.S. government's official web portal to all federal, state and local government web resources and services.